• In Portugal
  • List of Countries
  • For 7 days
  • Water Temperature
  • Satellite Maps
  • Weather Map
  • Weather Widgets
  • user-avatar
    Login

    Hourly Weather Kobdo

    Today, 24 February, Saturday

    Time Temperature Precipitation Wind Pressure Humidity
    00:00 -18°C° 0 mm 3 mps 585 mmHg 64%
    01:00 -18°C° 0 mm 3 mps 585 mmHg 60%
    02:00 -17°C° 0 mm 3 mps 585 mmHg 57%
    03:00 -17°C° 0 mm 3 mps 585 mmHg 54%
    04:00 -17°C° 0 mm 3 mps 585 mmHg 53%
    05:00 -17°C° 0 mm 3 mps 585 mmHg 51%
    06:00 -17°C° 0 mm 3 mps 585 mmHg 49%
    07:00 -16°C° 0 mm 3 mps 585 mmHg 51%
    08:00 -15°C° 0 mm 3 mps 585 mmHg 54%
    09:00 -14°C° 0 mm 3 mps 585 mmHg 56%
    10:00 -12°C° 0 mm 3 mps 586 mmHg 56%
    11:00 -10°C° 0 mm 3 mps 586 mmHg 55%
    12:00 -8°C° 0 mm 3 mps 586 mmHg 55%
    13:00 -8°C° 0 mm 3 mps 585 mmHg 58%
    14:00 -8°C° 0 mm 3 mps 585 mmHg 62%
    15:00 -8°C° 0 mm 3 mps 585 mmHg 65%
    16:00 -9°C° 0 mm 3 mps 584 mmHg 67%
    17:00 -12°C° 0 mm 3 mps 584 mmHg 68%
    18:00 -13°C° 0 mm 3 mps 583 mmHg 70%
    19:00 -13°C° 0 mm 3 mps 583 mmHg 71%
    20:00 -14°C° 0 mm 3 mps 583 mmHg 72%
    21:00 -14°C° 0 mm 3 mps 583 mmHg 72%
    22:00 -15°C° 0 mm 4 mps 583 mmHg 73%
    23:00 -15°C° 0 mm 4 mps 583 mmHg 73%

    Tomorrow, 25 February, Sunday

    Time Temperature Precipitation Wind Pressure Humidity
    00:00 -15°C° 0 mm 4 mps 583 mmHg 73%
    01:00 -15°C° 0 mm 4 mps 583 mmHg 73%
    02:00 -15°C° 0 mm 4 mps 583 mmHg 73%
    03:00 -16°C° 0 mm 4 mps 584 mmHg 73%
    04:00 -16°C° 0 mm 4 mps 584 mmHg 73%
    05:00 -15°C° 0 mm 3 mps 584 mmHg 73%
    06:00 -15°C° 0 mm 3 mps 584 mmHg 73%
    07:00 -14°C° 0 mm 3 mps 584 mmHg 73%
    08:00 -13°C° 0 mm 3 mps 585 mmHg 72%
    09:00 -12°C° 0 mm 3 mps 586 mmHg 71%
    10:00 -9°C° 0 mm 3 mps 586 mmHg 68%
    11:00 -8°C° 0 mm 3 mps 587 mmHg 64%
    12:00 -6°C° 0 mm 2 mps 587 mmHg 60%
    13:00 -6°C° 0 mm 2 mps 587 mmHg 61%
    14:00 -6°C° 0 mm 2 mps 587 mmHg 62%
    15:00 -6°C° 0 mm 2 mps 587 mmHg 63%
    16:00 -7°C° 0 mm 2 mps 586 mmHg 65%
    17:00 -9°C° 0 mm 2 mps 586 mmHg 67%
    18:00 -12°C° 0 mm 2 mps 586 mmHg 69%
    19:00 -13°C° 0 mm 2 mps 586 mmHg 68%
    20:00 -13°C° 0 mm 2 mps 586 mmHg 67%
    21:00 -14°C° 0 mm 3 mps 586 mmHg 66%
    22:00 -15°C° 0 mm 3 mps 586 mmHg 64%
    23:00 -15°C° 0 mm 3 mps 586 mmHg 62%

    Day after tomorrow, 26 February, Monday

    Time Temperature Precipitation Wind Pressure Humidity
    00:00 -15°C° 0 mm 3 mps 586 mmHg 59%
    01:00 -16°C° 0 mm 3 mps 586 mmHg 59%
    02:00 -16°C° 0 mm 3 mps 586 mmHg 58%
    03:00 -16°C° 0 mm 3 mps 585 mmHg 57%
    04:00 -16°C° 0 mm 3 mps 585 mmHg 57%
    05:00 -16°C° 0 mm 3 mps 585 mmHg 57%
    06:00 -16°C° 0 mm 3 mps 585 mmHg 57%
    07:00 -15°C° 0 mm 3 mps 586 mmHg 58%
    08:00 -13°C° 0 mm 2 mps 587 mmHg 59%
    09:00 -12°C° 0 mm 2 mps 587 mmHg 60%
    10:00 -10°C° 0 mm 2 mps 587 mmHg 59%
    11:00 -8°C° 0 mm 2 mps 587 mmHg 57%
    12:00 -7°C° 0 mm 2 mps 587 mmHg 55%
    13:00 -7°C° 0 mm 2 mps 587 mmHg 58%
    14:00 -7°C° 0 mm 2 mps 587 mmHg 61%
    15:00 -6°C° 0 mm 2 mps 587 mmHg 64%
    16:00 -8°C° 0 mm 2 mps 586 mmHg 67%
    17:00 -10°C° 0 mm 2 mps 586 mmHg 69%
    18:00 -13°C° 0 mm 2 mps 585 mmHg 72%
    19:00 -13°C° 0 mm 2 mps 585 mmHg 71%
    20:00 -14°C° 0 mm 2 mps 585 mmHg 71%
    21:00 -14°C° 0 mm 2 mps 585 mmHg 70%
    22:00 -15°C° 0 mm 3 mps 585 mmHg 68%
    23:00 -15°C° 0 mm 3 mps 584 mmHg 67%

    27 February, Tuesday

    Time Temperature Precipitation Wind Pressure Humidity
    00:00 -16°C° 0 mm 3 mps 584 mmHg 65%
    01:00 -16°C° 0 mm 3 mps 584 mmHg 65%
    02:00 -16°C° 0 mm 3 mps 584 mmHg 64%
    03:00 -16°C° 0 mm 3 mps 583 mmHg 64%
    04:00 -16°C° 0 mm 3 mps 583 mmHg 64%
    05:00 -16°C° 0 mm 3 mps 583 mmHg 63%
    06:00 -16°C° 0 mm 3 mps 583 mmHg 63%
    07:00 -15°C° 0 mm 3 mps 584 mmHg 63%
    08:00 -14°C° 0 mm 3 mps 584 mmHg 63%
    09:00 -12°C° 0 mm 3 mps 584 mmHg 62%
    10:00 -10°C° 0 mm 3 mps 584 mmHg 60%
    11:00 -8°C° 0 mm 3 mps 584 mmHg 57%
    12:00 -6°C° 0 mm 3 mps 585 mmHg 55%
    13:00 -6°C° 0 mm 3 mps 584 mmHg 57%
    14:00 -6°C° 0 mm 3 mps 584 mmHg 58%
    15:00 -6°C° 0 mm 3 mps 584 mmHg 60%
    16:00 -8°C° 0 mm 3 mps 583 mmHg 64%
    17:00 -10°C° 0 mm 3 mps 583 mmHg 67%
    18:00 -13°C° 0 mm 3 mps 582 mmHg 71%
    19:00 -14°C° 0 mm 3 mps 582 mmHg 70%
    20:00 -15°C° 0 mm 3 mps 582 mmHg 69%
    21:00 -15°C° 0 mm 3 mps 582 mmHg 68%
    22:00 -16°C° 0 mm 3 mps 582 mmHg 67%
    23:00 -16°C° 0 mm 3 mps 582 mmHg 66%

    28 February, Wednesday

    Time Temperature Precipitation Wind Pressure Humidity
    00:00 -15°C° 0 mm 2 mps 582 mmHg 64%
    01:00 -15°C° 0 mm 2 mps 582 mmHg 64%
    02:00 -15°C° 0 mm 2 mps 582 mmHg 64%
    03:00 -15°C° 0 mm 2 mps 582 mmHg 64%
    04:00 -15°C° 0 mm 2 mps 582 mmHg 64%
    05:00 -15°C° 0 mm 2 mps 581 mmHg 65%
    06:00 -15°C° 0 mm 2 mps 581 mmHg 65%
    07:00 -14°C° 0 mm 2 mps 582 mmHg 66%
    08:00 -13°C° 0 mm 2 mps 582 mmHg 66%
    09:00 -12°C° 0 mm 2 mps 583 mmHg 67%
    10:00 -12°C° 0 mm 3 mps 583 mmHg 64%
    11:00 -10°C° 0 mm 3 mps 583 mmHg 62%
    12:00 -8°C° 0 mm 3 mps 583 mmHg 60%
    13:00 -8°C° 0 mm 3 mps 582 mmHg 62%
    14:00 -8°C° 0 mm 3 mps 582 mmHg 64%
    15:00 -8°C° 0 mm 3 mps 582 mmHg 67%
    16:00 -9°C° 0 mm 3 mps 581 mmHg 69%
    17:00 -12°C° 0 mm 3 mps 581 mmHg 72%
    18:00 -13°C° 0 mm 3 mps 580 mmHg 74%
    19:00 -14°C° 0 mm 3 mps 580 mmHg 75%
    20:00 -14°C° 0 mm 3 mps 580 mmHg 75%
    21:00 -15°C° 0 mm 3 mps 580 mmHg 76%
    22:00 -15°C° 0 mm 3 mps 580 mmHg 75%
    23:00 -15°C° 0 mm 3 mps 580 mmHg 75%

    1 March, Thursday

    Time Temperature Precipitation Wind Pressure Humidity
    00:00 -15°C° 0 mm 3 mps 579 mmHg 75%
    01:00 -15°C° 0 mm 3 mps 579 mmHg 75%
    02:00 -16°C° 0 mm 3 mps 578 mmHg 75%
    03:00 -16°C° 0 mm 3 mps 578 mmHg 75%
    04:00 -16°C° 0 mm 3 mps 578 mmHg 75%
    05:00 -16°C° 0 mm 3 mps 578 mmHg 76%
    06:00 -17°C° 0 mm 3 mps 578 mmHg 76%
    07:00 -16°C° 0 mm 3 mps 578 mmHg 76%
    08:00 -15°C° 0 mm 3 mps 579 mmHg 75%
    09:00 -14°C° 0 mm 3 mps 579 mmHg 75%
    10:00 -15°C° 0 mm 4 mps 580 mmHg 71%
    11:00 -15°C° 0 mm 5 mps 580 mmHg 67%
    12:00 -14°C° 0 mm 5 mps 580 mmHg 64%
    13:00 -15°C° 0 mm 5 mps 580 mmHg 66%
    14:00 -17°C° 0 mm 5 mps 580 mmHg 68%
    15:00 -16°C° 0 mm 4 mps 581 mmHg 70%
    16:00 -17°C° 0 mm 3 mps 580 mmHg 75%
    17:00 -19°C° 0 mm 3 mps 580 mmHg 80%
    18:00 -20°C° 0 mm 2 mps 580 mmHg 85%
    19:00 -21°C° 0 mm 2 mps 580 mmHg 84%
    20:00 -20°C° 0 mm 1 mps 581 mmHg 84%
    21:00 -20°C° 0 mm 1 mps 581 mmHg 83%
    22:00 -20°C° 0 mm 1 mps 581 mmHg 80%
    23:00 -20°C° 0 mm 1 mps 581 mmHg 77%
    Show more